Tracking 28790 objects as of 19-Apr-2024
HD Live streaming from Space Station
objects crossing your sky now

NOAA 16 DEB

Track NOAA 16 DEB now!
10-day predictions


NORAD ID: 41161
Int'l Code: 2000-055CU
Perigee: 822.4 km
Apogee: 882.5 km
Inclination: 98.7 °
Period: 101.8 minutes
Semi major axis: 7223 km
RCS: Unknown
Launch date: September 21, 2000
Source: United States (US)
Launch site: AIR FORCE WESTERN TEST RANGE (AFWTR)

Note: This is SATELLITE DEBRIS
Your satellite tracking list
Your tracking list is empty




NASA's NSSDC Master Catalog

Two Line Element Set (TLE):
1 41161U 00055CU  24109.35922109  .00007102  00000-0  37196-2 0  9998
2 41161  98.7214 161.1635 0041578 204.9265 154.9900 14.14110078430981
Source of the keplerian elements: AFSPC